When you browse on this site, cookies collect data to enhance your experience and personalize the content and advertising you see.
Visit our Privacy Policy to learn more. By continuing to use the site, you agree to this use of cookies and data.
  • In Latvia
  • List of Countries
  • For 7 days
  • Water Temperature
  • Weather Map
  • Weather Widgets
  • user-avatar
    Login

    Hourly Weather Darwin

    Today, 22 August, Thursday

    Time Temperature Precipitation Wind Pressure Humidity
    00:00 +22°C° 0 mm 6 mps 761 mmHg 24%
    01:00 +21°C° 0 mm 6 mps 761 mmHg 30%
    02:00 +20°C° 0 mm 6 mps 761 mmHg 36%
    03:00 +19°C° 0 mm 5 mps 761 mmHg 34%
    04:00 +17°C° 0 mm 5 mps 761 mmHg 44%
    05:00 +17°C° 0 mm 5 mps 761 mmHg 54%
    06:00 +16°C° 0 mm 5 mps 761 mmHg 64%
    07:00 +19°C° 0 mm 6 mps 762 mmHg 57%
    08:00 +22°C° 0 mm 6 mps 762 mmHg 50%
    09:00 +24°C° 0 mm 6 mps 762 mmHg 43%
    10:00 +28°C° 0 mm 6 mps 762 mmHg 38%
    11:00 +30°C° 0 mm 5 mps 761 mmHg 33%
    12:00 +34°C° 0 mm 4 mps 760 mmHg 28%
    13:00 +35°C° 0 mm 5 mps 760 mmHg 27%
    14:00 +35°C° 0 mm 5 mps 759 mmHg 27%
    15:00 +36°C° 0 mm 5 mps 759 mmHg 26%
    16:00 +34°C° 0 mm 5 mps 759 mmHg 33%
    17:00 +32°C° 0 mm 4 mps 759 mmHg 39%
    18:00 +28°C° 0 mm 3 mps 759 mmHg 46%
    19:00 +27°C° 0 mm 3 mps 759 mmHg 53%
    20:00 +25°C° 0 mm 3 mps 760 mmHg 60%
    21:00 +24°C° 0 mm 2 mps 761 mmHg 67%
    22:00 +23°C° 0 mm 2 mps 761 mmHg 68%
    23:00 +21°C° 0 mm 2 mps 761 mmHg 69%

    Tomorrow, 23 August, Friday

    Time Temperature Precipitation Wind Pressure Humidity
    00:00 +22°C° 0 mm 1 mps 761 mmHg 70%
    01:00 +22°C° 0 mm 1 mps 761 mmHg 70%
    02:00 +20°C° 0 mm 2 mps 761 mmHg 71%
    03:00 +20°C° 0 mm 2 mps 761 mmHg 71%
    04:00 +20°C° 0 mm 2 mps 761 mmHg 72%
    05:00 +19°C° 0 mm 2 mps 761 mmHg 73%
    06:00 +19°C° 0 mm 2 mps 761 mmHg 74%
    07:00 +21°C° 0 mm 2 mps 762 mmHg 65%
    08:00 +25°C° 0 mm 3 mps 762 mmHg 55%
    09:00 +27°C° 0 mm 4 mps 762 mmHg 45%
    10:00 +29°C° 0 mm 3 mps 762 mmHg 38%
    11:00 +31°C° 0 mm 3 mps 761 mmHg 31%
    12:00 +35°C° 0 mm 2 mps 761 mmHg 24%
    13:00 +35°C° 0 mm 3 mps 760 mmHg 26%
    14:00 +34°C° 0 mm 3 mps 759 mmHg 28%
    15:00 +34°C° 0 mm 4 mps 759 mmHg 31%
    16:00 +31°C° 0 mm 3 mps 759 mmHg 37%
    17:00 +29°C° 0 mm 3 mps 759 mmHg 43%
    18:00 +27°C° 0 mm 2 mps 759 mmHg 49%
    19:00 +26°C° 0 mm 2 mps 759 mmHg 57%
    20:00 +24°C° 0 mm 2 mps 760 mmHg 64%
    21:00 +23°C° 0 mm 2 mps 760 mmHg 71%
    22:00 +21°C° 0 mm 2 mps 760 mmHg 74%
    23:00 +21°C° 0 mm 2 mps 761 mmHg 77%

    Day after tomorrow, 24 August, Saturday

    Time Temperature Precipitation Wind Pressure Humidity
    00:00 +21°C° 0 mm 1 mps 761 mmHg 80%
    01:00 +21°C° 0 mm 1 mps 761 mmHg 81%
    02:00 +21°C° 0 mm 1 mps 761 mmHg 81%
    03:00 +20°C° 0 mm 1 mps 761 mmHg 82%
    04:00 +19°C° 0 mm 2 mps 761 mmHg 84%
    05:00 +19°C° 0 mm 2 mps 761 mmHg 87%
    06:00 +19°C° 0 mm 2 mps 761 mmHg 89%
    07:00 +23°C° 0 mm 2 mps 761 mmHg 78%
    08:00 +26°C° 0 mm 2 mps 762 mmHg 66%
    09:00 +29°C° 0 mm 2 mps 762 mmHg 55%
    10:00 +31°C° 0 mm 2 mps 761 mmHg 45%
    11:00 +34°C° 0 mm 2 mps 761 mmHg 35%
    12:00 +36°C° 0 mm 2 mps 761 mmHg 26%
    13:00 +36°C° 0 mm 3 mps 760 mmHg 26%
    14:00 +35°C° 0 mm 3 mps 759 mmHg 27%
    15:00 +35°C° 0 mm 4 mps 758 mmHg 28%
    16:00 +33°C° 0 mm 3 mps 758 mmHg 34%
    17:00 +30°C° 0 mm 3 mps 758 mmHg 40%
    18:00 +28°C° 0 mm 2 mps 758 mmHg 46%
    19:00 +26°C° 0 mm 2 mps 759 mmHg 54%
    20:00 +24°C° 0 mm 2 mps 759 mmHg 63%
    21:00 +23°C° 0 mm 2 mps 760 mmHg 71%
    22:00 +21°C° 0 mm 2 mps 760 mmHg 74%
    23:00 +21°C° 0 mm 2 mps 760 mmHg 77%

    25 August, Sunday

    Time Temperature Precipitation Wind Pressure Humidity
    00:00 +22°C° 0 mm 1 mps 760 mmHg 80%
    01:00 +20°C° 0 mm 2 mps 760 mmHg 82%
    02:00 +20°C° 0 mm 2 mps 760 mmHg 85%
    03:00 +20°C° 0 mm 3 mps 759 mmHg 88%
    04:00 +20°C° 0 mm 3 mps 760 mmHg 90%
    05:00 +20°C° 0 mm 3 mps 760 mmHg 92%
    06:00 +20°C° 0 mm 3 mps 760 mmHg 95%
    07:00 +22°C° 0 mm 3 mps 760 mmHg 83%
    08:00 +25°C° 0 mm 3 mps 760 mmHg 72%
    09:00 +28°C° 0 mm 3 mps 761 mmHg 60%
    10:00 +30°C° 0 mm 3 mps 760 mmHg 49%
    11:00 +34°C° 0 mm 3 mps 760 mmHg 37%
    12:00 +36°C° 0 mm 3 mps 759 mmHg 25%
    13:00 +37°C° 0 mm 3 mps 758 mmHg 24%
    14:00 +37°C° 0 mm 4 mps 757 mmHg 22%
    15:00 +38°C° 0 mm 4 mps 756 mmHg 21%
    16:00 +35°C° 0 mm 4 mps 757 mmHg 30%
    17:00 +31°C° 0 mm 3 mps 757 mmHg 39%
    18:00 +28°C° 0 mm 3 mps 757 mmHg 47%
    19:00 +26°C° 0 mm 3 mps 758 mmHg 56%
    20:00 +24°C° 0 mm 2 mps 758 mmHg 65%
    21:00 +23°C° 0 mm 2 mps 759 mmHg 74%
    22:00 +23°C° 0 mm 2 mps 759 mmHg 76%
    23:00 +23°C° 0 mm 2 mps 759 mmHg 79%

    26 August, Monday

    Time Temperature Precipitation Wind Pressure Humidity
    00:00 +23°C° 0 mm 2 mps 759 mmHg 82%
    01:00 +21°C° 0 mm 2 mps 759 mmHg 85%
    02:00 +21°C° 0 mm 3 mps 759 mmHg 87%
    03:00 +21°C° 0 mm 3 mps 759 mmHg 90%
    04:00 +21°C° 0 mm 3 mps 759 mmHg 91%
    05:00 +20°C° 0 mm 2 mps 759 mmHg 92%
    06:00 +20°C° 0 mm 2 mps 760 mmHg 93%
    07:00 +22°C° 0 mm 3 mps 760 mmHg 82%
    08:00 +26°C° 0 mm 3 mps 760 mmHg 72%
    09:00 +28°C° 0 mm 4 mps 761 mmHg 61%
    10:00 +30°C° 0 mm 4 mps 760 mmHg 49%
    11:00 +33°C° 0 mm 3 mps 759 mmHg 37%
    12:00 +36°C° 0 mm 3 mps 759 mmHg 25%
    13:00 +36°C° 0 mm 3 mps 758 mmHg 24%
    14:00 +37°C° 0 mm 4 mps 757 mmHg 23%
    15:00 +37°C° 0 mm 4 mps 756 mmHg 22%
    16:00 +34°C° 0 mm 4 mps 757 mmHg 32%
    17:00 +30°C° 0 mm 3 mps 757 mmHg 42%
    18:00 +27°C° 0 mm 2 mps 757 mmHg 52%
    19:00 +26°C° 0 mm 2 mps 758 mmHg 60%
    20:00 +24°C° 0 mm 2 mps 758 mmHg 69%
    21:00 +23°C° 0 mm 1 mps 759 mmHg 77%
    22:00 +23°C° 0 mm 2 mps 759 mmHg 79%
    23:00 +21°C° 0 mm 2 mps 759 mmHg 81%

    27 August, Tuesday

    Time Temperature Precipitation Wind Pressure Humidity
    00:00 +21°C° 0 mm 2 mps 760 mmHg 83%
    01:00 +21°C° 0 mm 2 mps 759 mmHg 85%
    02:00 +21°C° 0 mm 2 mps 759 mmHg 88%
    03:00 +21°C° 0 mm 2 mps 759 mmHg 90%
    04:00 +20°C° 0 mm 2 mps 759 mmHg 91%
    05:00 +20°C° 0 mm 2 mps 760 mmHg 92%
    06:00 +20°C° 0 mm 2 mps 760 mmHg 93%
    07:00 +22°C° 0 mm 3 mps 761 mmHg 80%
    08:00 +25°C° 0 mm 4 mps 761 mmHg 66%
    09:00 +28°C° 0 mm 4 mps 761 mmHg 53%
    10:00 +30°C° 0 mm 4 mps 761 mmHg 42%
    11:00 +34°C° 0 mm 4 mps 760 mmHg 31%
    12:00 +36°C° 0 mm 4 mps 760 mmHg 20%
    13:00 +37°C° 0 mm 4 mps 759 mmHg 20%
    14:00 +37°C° 0 mm 4 mps 758 mmHg 19%
    15:00 +38°C° 0 mm 4 mps 757 mmHg 18%
    16:00 +35°C° 0 mm 3 mps 757 mmHg 26%
    17:00 +33°C° 0 mm 3 mps 758 mmHg 34%
    18:00 +29°C° 0 mm 3 mps 758 mmHg 42%
    19:00 +27°C° 0 mm 3 mps 758 mmHg 49%
    20:00 +26°C° 0 mm 2 mps 759 mmHg 56%
    21:00 +24°C° 0 mm 2 mps 760 mmHg 64%
    22:00 +24°C° 0 mm 2 mps 760 mmHg 67%
    23:00 +23°C° 0 mm 2 mps 760 mmHg 71%
    Show more